#timestamp,LO_Frequency,Hit 
1501020015.5,286047005.9,N
1501020035.3,286047006.5,N
1501020055.2,286047010.7,Y
1501020075.0,286047004.9,N
1501020075.9,286047004.9,N
1501020095.7,286047001.7,N
1501020115.6,286047003.0,N
1501020135.4,286047001.8,N
1501020155.2,286046999.8,N
1501020175.1,286047004.1,N
1501020176.0,286047004.1,N
1501020195.8,286047001.7,N
1501020215.6,286047003.9,N
1501020235.5,286047002.3,N
1501020255.3,286047005.3,N
1501020275.1,286047007.0,N
1501020295.8,286047007.5,N
1501020315.7,286047005.2,N
1501020335.5,286047005.5,N
1501020355.3,286047005.5,N
1501020375.2,286047003.1,N
1501020395.9,286047003.8,N
1501020415.7,286047005.7,N
1501020435.6,286047001.9,N
1501020455.4,286047002.6,N
1501020475.2,286047003.7,N
1501020495.1,286047000.3,N
1501020496.0,286047000.3,N
1501020515.8,286047001.2,N
1501020535.6,286046997.1,N
1501020555.5,286046998.3,N
1501020575.3,286047002.3,N
1501020595.1,286047000.6,N
1501020615.8,286047000.7,N
1501020635.7,286046998.7,N
1501020655.5,286046999.6,N
1501020675.3,286046996.6,N
1501020695.2,286046996.3,N
1501020715.9,286046993.5,N
1501020735.7,286046996.7,N
1501020755.6,286047002.8,N
1501020775.4,286047000.2,N
1501020795.2,286047002.3,N
1501020815.1,286047004.1,N
1501020816.0,286047004.1,N
1501020835.8,286047003.5,N
1501020855.6,286047001.5,N
1501020875.4,286047001.7,N
1501020895.3,286047000.2,N
1501020915.1,286047002.4,N
1501020935.8,286047002.8,N
1501020955.7,286046999.9,N
1501020975.5,286047000.0,N
1501020995.3,286047001.4,N
1501021015.2,286047002.5,N
1501021035.9,286047004.0,N
1501021055.7,286047005.7,N
1501021075.6,286047005.1,N
1501021095.4,286047004.1,N
1501021115.2,286047004.1,N
1501021135.0,286047000.7,N
1501021136.0,286047000.7,N
1501021155.8,286047002.6,N
1501021175.6,286046999.8,N
1501021195.4,286046999.9,N
1501021215.3,286047002.4,N
1501021235.1,286047003.7,N
1501021255.8,286047001.6,N
1501021275.7,286047003.3,N
1501021295.5,286047004.7,N
1501021315.3,286047008.7,N
1501021335.2,286047006.8,N
1501021355.9,286047001.9,N
1501021375.7,286047003.3,N
1501021395.6,286047007.6,N
1501021415.4,286047005.1,N
1501021435.2,286047005.4,N
1501021455.0,286047003.6,N
1501021456.0,286047003.6,N
1501021475.8,286047000.2,N
1501021495.6,286047000.4,N
1501021515.4,286047000.8,N
1501021535.3,286047000.2,N
1501021555.1,286046998.8,N
1501021575.8,286046995.8,N
1501021595.7,286047002.1,N
1501021615.5,286047004.3,N
1501021635.3,286047006.0,N
1501021655.2,286046998.9,N
1501021675.9,286046999.6,N
1501021695.7,286046999.9,N
1501021715.6,286047000.7,N
1501021735.4,286046996.4,N
1501021755.2,286046992.4,N
1501021775.0,286046992.9,N
1501021775.9,286046992.9,N
1501021795.8,286046990.7,N
1501021815.6,286046986.9,N
1501021835.4,286046989.9,N
1501021855.3,286046988.2,N
1501021875.1,286046985.7,N
1501021876.0,286046985.7,N
1501021895.8,286046991.6,N
1501021915.7,286046993.4,N
1501021935.5,286046993.0,N
1501021955.3,286046994.4,N
1501021975.2,286046993.9,N
1501021995.9,286046993.7,N
1501022015.7,286046993.6,N
1501022035.5,286046995.6,N
1501022055.4,286046994.7,N
1501022075.2,286046990.4,N
1501022095.0,286046988.9,N
1501022095.9,286046988.9,N
1501022115.8,286046988.5,N
1501022135.6,286046992.1,N
1501022155.4,286046995.4,N
1501022175.3,286046997.7,N
1501022195.1,286046998.4,N
1501022196.0,286046998.4,N
1501022215.8,286046997.2,N
1501022235.7,286046997.8,N
1501022255.5,286046997.5,N
1501022275.3,286046995.7,N
1501022295.2,286046996.4,N
1501022315.9,286046995.9,N
1501022335.7,286046997.8,N
1501022355.5,286046999.6,N
1501022375.4,286047000.9,N
1501022395.2,286047002.4,N
1501022415.0,286047002.4,N
1501022415.9,286047002.4,N
1501022435.8,286047002.3,N
1501022455.6,286047002.3,N
1501022475.4,286047003.8,N
1501022495.3,286047002.3,N
1501022515.1,286047000.5,N
1501022516.0,286047000.5,N
1501022535.8,286046998.3,N
1501022555.7,286046998.5,N
1501022575.5,286046998.7,N
1501022595.3,286046998.8,N
1501022615.2,286047000.7,N
1501022635.9,286047001.0,N
1501022655.7,286046999.6,N
1501022675.5,286047002.3,N
1501022695.4,286047003.9,N
1501022715.2,286047006.1,N
1501022735.0,286047010.3,N
1501022735.9,286047010.3,N
1501022755.8,286047008.8,N
1501022775.6,286047004.8,N
1501022795.4,286047003.8,N
1501022815.3,286047003.9,N
1501022835.1,286047005.6,N
1501022836.0,286047005.6,N
1501022855.8,286047006.8,N
1501022875.7,286047006.8,N
1501022895.5,286047006.7,N
1501022915.3,286047006.4,N
1501022935.1,286047008.5,N
1501022955.9,286047007.1,N
1501022975.7,286047008.3,N
1501022995.5,286047009.8,N
1501023015.4,286047012.1,N
1501023035.2,286047011.7,N
1501023055.0,286047007.8,N
1501023055.9,286047007.8,N
1501023075.8,286047012.1,N
1501023095.6,286047015.3,N
1501023115.4,286047012.0,N
1501023135.3,286047010.5,N
1501023155.1,286047009.3,N
1501023156.0,286047009.3,N
1501023175.8,286047008.7,N
1501023195.6,286047007.8,N
1501023215.5,286047007.8,N
1501023235.3,286047013.8,N
1501023255.1,286047009.5,N
1501023275.9,286047012.4,N
1501023295.7,286047010.6,N
1501023315.5,286047010.6,N
1501023335.4,286047008.3,N
1501023355.2,286047009.5,N
1501023375.0,286047010.4,N
1501023375.9,286047010.4,N
1501023395.8,286047012.3,N
1501023415.6,286047012.3,N
1501023435.4,286047014.3,N
1501023455.2,286047015.0,N
1501023475.1,286047017.2,N
1501023476.0,286047017.2,N
1501023495.8,286047015.6,N
1501023515.6,286047013.8,N
1501023535.5,286047014.8,N
1501023555.3,286047015.3,N
1501023575.1,286047015.1,N
1501023595.9,286047011.0,N
